TimeCST,TemperatureF,Dew PointF,Humidity,Sea Level PressureIn,VisibilityMPH,Wind Direction,Wind SpeedMPH,Gust SpeedMPH,PrecipitationIn,Events,Conditions,WindDirDegrees,DateUTC
12:54 AM,42.1,28.9,60,30.30,10.0,ENE,6.9,-,N/A,,Clear,60,2013-03-08 06:54:00
1:54 AM,39.0,28.9,67,30.31,10.0,East,6.9,-,N/A,,Clear,80,2013-03-08 07:54:00
2:54 AM,39.9,28.9,65,30.31,10.0,East,6.9,-,N/A,,Clear,90,2013-03-08 08:54:00
3:54 AM,39.9,28.9,65,30.32,10.0,East,10.4,-,N/A,,Clear,80,2013-03-08 09:54:00
4:54 AM,37.0,28.9,73,30.32,10.0,East,6.9,-,N/A,,Clear,90,2013-03-08 10:54:00
5:54 AM,35.6,28.4,75,30.34,10.0,East,5.8,-,N/A,,Clear,80,2013-03-08 11:54:00
6:54 AM,37.0,28.0,70,30.37,10.0,East,9.2,-,N/A,,Partly Cloudy,80,2013-03-08 12:54:00
7:54 AM,39.0,28.9,67,30.40,10.0,ESE,5.8,-,N/A,,Partly Cloudy,110,2013-03-08 13:54:00
8:54 AM,43.0,28.9,58,30.38,10.0,East,6.9,-,N/A,,Partly Cloudy,100,2013-03-08 14:54:00
9:54 AM,46.9,30.0,52,30.38,10.0,ESE,5.8,-,N/A,,Partly Cloudy,120,2013-03-08 15:54:00
10:54 AM,53.6,30.2,41,30.36,10.0,ENE,6.9,-,N/A,,Scattered Clouds,70,2013-03-08 16:54:00
11:54 AM,54.0,30.0,40,30.35,10.0,ESE,4.6,-,N/A,,Scattered Clouds,120,2013-03-08 17:54:00
12:54 PM,59.0,27.0,29,30.30,10.0,NE,5.8,-,N/A,,Mostly Cloudy,50,2013-03-08 18:54:00
1:54 PM,61.0,26.1,26,30.27,10.0,ESE,6.9,-,N/A,,Mostly Cloudy,120,2013-03-08 19:54:00
2:54 PM,62.1,21.9,21,30.27,10.0,Variable,3.5,-,N/A,,Mostly Cloudy,0,2013-03-08 20:54:00
3:54 PM,64.0,19.9,18,30.24,10.0,ENE,4.6,-,N/A,,Mostly Cloudy,60,2013-03-08 21:54:00
4:54 PM,62.6,21.2,20,30.23,10.0,ENE,3.5,-,N/A,,Mostly Cloudy,70,2013-03-08 22:54:00
5:54 PM,59.0,24.1,26,30.22,10.0,East,6.9,-,N/A,,Overcast,80,2013-03-08 23:54:00
6:54 PM,59.0,21.9,24,30.21,10.0,East,5.8,-,N/A,,Overcast,100,2013-03-09 00:54:00
7:54 PM,60.1,19.9,21,30.22,10.0,SE,4.6,-,N/A,,Mostly Cloudy,130,2013-03-09 01:54:00
8:54 PM,57.0,23.0,27,30.21,10.0,ESE,8.1,-,N/A,,Mostly Cloudy,110,2013-03-09 02:54:00
9:54 PM,55.9,21.9,27,30.22,10.0,ESE,3.5,-,N/A,,Mostly Cloudy,110,2013-03-09 03:54:00
10:54 PM,55.9,23.0,28,30.21,10.0,ESE,4.6,-,N/A,,Mostly Cloudy,110,2013-03-09 04:54:00
11:54 PM,55.0,23.0,29,30.19,10.0,SE,3.5,-,N/A,,Mostly Cloudy,140,2013-03-09 05:54:00